STARLINK-1303 (45396 NORAD) Tracking and Keplerian Element Data

This shows tracking and keplerian element data for the satellite.

Feedback or suggestion? Click here.




ElementValue
Catalog45396
NameSTARLINK-1303
Epoch Orbit1090
Epoch Day145.75001157
Epoch Year2020
RAAN285.2043
Inclination52.9983
Eccentricity0.0004481
Argument of Perigee341.0571
Mean Anonmoly277.4128
Mean Motion15.56728456
Decay Rate0.04109532
L11 45396U 20019AN 20145.75001157 .04109532 00000-0 49032-1 0 9990
L22 45396 52.9983 285.2043 0004481 341.0571 277.4128 15.56728456 10907

Live tracking and technical data element details for STARLINK-1303 (NORAD 45396). STARLINK-1303 can be tracked NOW for your location showing map with azimuth and elevation plus other details from your city location.

Track the satellite on the map from your city or location and see movement details for azimuth, elevation, latitude, longitude, range, height, and movement on the map or in text.







IsCatalogInMostPopularTable: catalog: 45396, numindb: 24
Update: records affected: 1



GetName: 45396 STARLINK-1303

Hit Count: updated at: Tue, 26 May 2020 03:39:52 GMT